{"data":{"norad_id":67509,"intl_designator":"2026-012S","name":"STARLINK-36541","alt_names":[],"object_type":"PAYLOAD","status":"ACTIVE","operator":null,"country":"US","launch_date":"2026-01-18","launch_site_code":"AFETR","launch_vehicle":null,"mission":null,"orbit_class":"UNKNOWN","rcs_meters":null,"size_class":null,"mass_kg":null,"dimensions":null,"purposes":["comms"],"wikipedia_slug":null,"has_3d_model":false,"image_url":null,"decayed_at":null,"tle_current":{"epoch":"2026-05-24T23:15:00.973728Z","epoch_age_seconds":77469,"freshness":"FRESH","line1":"1 67509U 26012S   26144.96876127  .00011741  00000+0  43537-3 0  9999","line2":"2 67509  43.0024 243.9890 0001131 287.7856  72.2872 15.27590387 19427","mean_motion":15.27590387,"eccentricity":0.0001131,"inclination_deg":43.0024,"raan_deg":243.989,"arg_perigee_deg":287.7856,"mean_anomaly_deg":72.2872,"bstar":0.00043537,"rev_number":1942,"period_min":94.266107737689,"perigee_km":482.24199717139,"apogee_km":483.79399043099,"semimajor_km":6861.1549938012,"source":"CELESTRAK","updated_at":"2026-05-25T13:38:21.598923Z"}}}